• In Italy
  • List of Countries
  • For 7 days
  • Water Temperature
  • Satellite Maps
  • Weather Map
  • Weather Widgets
  • user-avatar
    Login

    Hourly Weather Bolshoy Abanur

    Today, 21 October, Sunday

    Time Temperature Precipitation Wind Pressure Humidity
    00:00 +3°C° 0 mm 2 mps 754 mmHg 95%
    01:00 +2°C° 0 mm 2 mps 754 mmHg 95%
    02:00 +2°C° 0 mm 2 mps 755 mmHg 95%
    03:00 +2°C° 0 mm 2 mps 755 mmHg 96%
    04:00 +2°C° 0 mm 2 mps 756 mmHg 96%
    05:00 +2°C° 0 mm 1 mps 756 mmHg 96%
    06:00 +2°C° 0 mm 1 mps 756 mmHg 96%
    07:00 +3°C° 0 mm 1 mps 757 mmHg 91%
    08:00 +3°C° 0 mm 1 mps 757 mmHg 87%
    09:00 +4°C° 0 mm 1 mps 757 mmHg 81%
    10:00 +5°C° 0 mm 1 mps 758 mmHg 75%
    11:00 +6°C° 0 mm 1 mps 758 mmHg 70%
    12:00 +7°C° 0 mm 1 mps 758 mmHg 64%
    13:00 +7°C° 0 mm 1 mps 758 mmHg 64%
    14:00 +7°C° 0 mm 1 mps 759 mmHg 63%
    15:00 +7°C° 0 mm 1 mps 759 mmHg 63%
    16:00 +6°C° 0 mm 1 mps 759 mmHg 68%
    17:00 +5°C° 0 mm 1 mps 759 mmHg 73%
    18:00 +3°C° 0 mm 0 mps 759 mmHg 78%
    19:00 +2°C° 0 mm 0 mps 759 mmHg 80%
    20:00 +2°C° 0 mm 0 mps 759 mmHg 82%
    21:00 +2°C° 0 mm 0 mps 760 mmHg 84%
    22:00 +1°C° 0 mm 0 mps 760 mmHg 85%
    23:00 +1°C° 0 mm 0 mps 760 mmHg 86%

    Tomorrow, 22 October, Monday

    Time Temperature Precipitation Wind Pressure Humidity
    00:00 +2°C° 0 mm 1 mps 760 mmHg 87%
    01:00 +2°C° 0 mm 1 mps 760 mmHg 88%
    02:00 +1°C° 0 mm 1 mps 760 mmHg 90%
    03:00 +1°C° 0 mm 1 mps 760 mmHg 91%
    04:00 +1°C° 0 mm 1 mps 759 mmHg 91%
    05:00 -1°C° 0 mm 2 mps 759 mmHg 92%
    06:00 -1°C° 0 mm 2 mps 759 mmHg 93%
    07:00 +1°C° 0 mm 2 mps 759 mmHg 89%
    08:00 +2°C° 0 mm 2 mps 759 mmHg 85%
    09:00 +2°C° 0 mm 3 mps 758 mmHg 81%
    10:00 +3°C° 0 mm 3 mps 758 mmHg 76%
    11:00 +4°C° 0 mm 4 mps 758 mmHg 72%
    12:00 +6°C° 0 mm 4 mps 757 mmHg 68%
    13:00 +6°C° 0 mm 4 mps 757 mmHg 68%
    14:00 +6°C° 0 mm 4 mps 756 mmHg 68%
    15:00 +6°C° 0 mm 4 mps 755 mmHg 68%
    16:00 +5°C° 0 mm 4 mps 755 mmHg 72%
    17:00 +4°C° 0 mm 4 mps 754 mmHg 76%
    18:00 +4°C° 0 mm 4 mps 754 mmHg 80%
    19:00 +4°C° 0 mm 4 mps 753 mmHg 80%
    20:00 +3°C° 0 mm 5 mps 753 mmHg 81%
    21:00 +3°C° 0 mm 5 mps 752 mmHg 81%
    22:00 +2°C° 0 mm 5 mps 752 mmHg 82%
    23:00 +3°C° 0 mm 4 mps 751 mmHg 83%

    Day after tomorrow, 23 October, Tuesday

    Time Temperature Precipitation Wind Pressure Humidity
    00:00 +3°C° 0 mm 4 mps 751 mmHg 83%
    01:00 +3°C° 0 mm 4 mps 750 mmHg 85%
    02:00 +3°C° 0 mm 4 mps 750 mmHg 86%
    03:00 +3°C° 0 mm 4 mps 750 mmHg 88%
    04:00 +3°C° 0 mm 4 mps 749 mmHg 89%
    05:00 +3°C° 0 mm 4 mps 749 mmHg 90%
    06:00 +3°C° 0 mm 4 mps 748 mmHg 91%
    07:00 +4°C° 0 mm 4 mps 748 mmHg 89%
    08:00 +5°C° 0 mm 5 mps 747 mmHg 87%
    09:00 +6°C° 0 mm 5 mps 747 mmHg 85%
    10:00 +6°C° 0.3 mm 5 mps 746 mmHg 86%
    11:00 +7°C° 0.3 mm 4 mps 746 mmHg 87%
    12:00 +7°C° 0.3 mm 4 mps 745 mmHg 87%
    13:00 +7°C° 0.8 mm 4 mps 745 mmHg 89%
    14:00 +7°C° 0.8 mm 4 mps 744 mmHg 90%
    15:00 +6°C° 0.8 mm 4 mps 744 mmHg 92%
    16:00 +7°C° 0.9 mm 3 mps 743 mmHg 93%
    17:00 +7°C° 0.9 mm 3 mps 743 mmHg 94%
    18:00 +7°C° 0.9 mm 3 mps 743 mmHg 95%
    19:00 +7°C° 0.4 mm 2 mps 742 mmHg 95%
    20:00 +7°C° 0.4 mm 2 mps 742 mmHg 96%
    21:00 +6°C° 0.4 mm 2 mps 741 mmHg 96%
    22:00 +7°C° 0.3 mm 1 mps 741 mmHg 96%
    23:00 +7°C° 0.3 mm 1 mps 740 mmHg 97%

    24 October, Wednesday

    Time Temperature Precipitation Wind Pressure Humidity
    00:00 +7°C° 0.3 mm 1 mps 740 mmHg 97%
    01:00 +6°C° 0.1 mm 1 mps 740 mmHg 97%
    02:00 +5°C° 0.1 mm 1 mps 740 mmHg 96%
    03:00 +5°C° 0.1 mm 1 mps 739 mmHg 96%
    04:00 +4°C° 0 mm 1 mps 739 mmHg 96%
    05:00 +3°C° 0 mm 2 mps 739 mmHg 96%
    06:00 +3°C° 0 mm 2 mps 739 mmHg 96%
    07:00 +3°C° 0 mm 2 mps 739 mmHg 93%
    08:00 +3°C° 0 mm 3 mps 739 mmHg 89%
    09:00 +3°C° 0 mm 3 mps 739 mmHg 86%
    10:00 +4°C° 0 mm 4 mps 739 mmHg 82%
    11:00 +5°C° 0 mm 4 mps 739 mmHg 78%
    12:00 +6°C° 0 mm 4 mps 739 mmHg 73%
    13:00 +6°C° 0.2 mm 4 mps 739 mmHg 75%
    14:00 +6°C° 0.2 mm 4 mps 739 mmHg 76%
    15:00 +6°C° 0.2 mm 4 mps 739 mmHg 78%
    16:00 +6°C° 0.3 mm 4 mps 739 mmHg 81%
    17:00 +5°C° 0.3 mm 3 mps 740 mmHg 83%
    18:00 +5°C° 0.3 mm 3 mps 740 mmHg 86%
    19:00 +5°C° 0 mm 3 mps 740 mmHg 88%
    20:00 +4°C° 0 mm 3 mps 740 mmHg 90%
    21:00 +5°C° 0 mm 2 mps 740 mmHg 91%
    22:00 +5°C° 0.2 mm 2 mps 740 mmHg 91%
    23:00 +4°C° 0.2 mm 3 mps 740 mmHg 90%

    25 October, Thursday

    Time Temperature Precipitation Wind Pressure Humidity
    00:00 +5°C° 0.2 mm 3 mps 740 mmHg 89%
    01:00 +5°C° 0.2 mm 3 mps 740 mmHg 89%
    02:00 +5°C° 0.2 mm 3 mps 740 mmHg 89%
    03:00 +5°C° 0.2 mm 3 mps 739 mmHg 89%
    04:00 +5°C° 0.5 mm 4 mps 739 mmHg 89%
    05:00 +6°C° 0.5 mm 4 mps 739 mmHg 90%
    06:00 +6°C° 0.5 mm 4 mps 738 mmHg 90%
    07:00 +6°C° 0.2 mm 5 mps 738 mmHg 90%
    08:00 +7°C° 0.2 mm 5 mps 738 mmHg 89%
    09:00 +8°C° 0.2 mm 6 mps 737 mmHg 89%
    10:00 +8°C° 0.6 mm 6 mps 737 mmHg 88%
    11:00 +8°C° 0.6 mm 6 mps 736 mmHg 88%
    12:00 +9°C° 0.6 mm 6 mps 736 mmHg 88%
    13:00 +9°C° 0.7 mm 5 mps 736 mmHg 89%
    14:00 +9°C° 0.7 mm 5 mps 735 mmHg 89%
    15:00 +9°C° 0.7 mm 5 mps 735 mmHg 90%
    16:00 +9°C° 1 mm 5 mps 735 mmHg 90%
    17:00 +8°C° 1 mm 5 mps 735 mmHg 90%
    18:00 +8°C° 1 mm 5 mps 734 mmHg 90%
    19:00 +8°C° 0.7 mm 5 mps 734 mmHg 88%
    20:00 +8°C° 0.7 mm 5 mps 733 mmHg 87%
    21:00 +8°C° 0.7 mm 5 mps 732 mmHg 85%
    22:00 +8°C° 0.5 mm 5 mps 732 mmHg 85%
    23:00 +8°C° 0.5 mm 5 mps 731 mmHg 84%

    26 October, Friday

    Time Temperature Precipitation Wind Pressure Humidity
    00:00 +9°C° 0.5 mm 5 mps 731 mmHg 83%
    01:00 +8°C° 0.5 mm 5 mps 731 mmHg 84%
    02:00 +8°C° 0.5 mm 6 mps 731 mmHg 84%
    03:00 +8°C° 0.5 mm 6 mps 731 mmHg 84%
    04:00 +7°C° 0 mm 5 mps 731 mmHg 82%
    05:00 +6°C° 0 mm 5 mps 732 mmHg 80%
    06:00 +5°C° 0 mm 5 mps 732 mmHg 78%
    07:00 +5°C° 0 mm 5 mps 732 mmHg 78%
    08:00 +5°C° 0 mm 5 mps 732 mmHg 78%
    09:00 +4°C° 0 mm 6 mps 733 mmHg 78%
    10:00 +4°C° 0 mm 6 mps 733 mmHg 76%
    11:00 +4°C° 0 mm 6 mps 733 mmHg 73%
    12:00 +5°C° 0 mm 6 mps 734 mmHg 71%
    13:00 +5°C° 0.1 mm 6 mps 734 mmHg 71%
    14:00 +4°C° 0.1 mm 6 mps 734 mmHg 70%
    15:00 +4°C° 0.1 mm 6 mps 735 mmHg 69%
    16:00 +4°C° 0 mm 6 mps 735 mmHg 71%
    17:00 +4°C° 0 mm 6 mps 736 mmHg 72%
    18:00 +3°C° 0 mm 6 mps 736 mmHg 73%
    19:00 +3°C° 0 mm 6 mps 736 mmHg 75%
    20:00 +3°C° 0 mm 5 mps 737 mmHg 77%
    21:00 +3°C° 0 mm 5 mps 737 mmHg 79%
    22:00 +3°C° 0.1 mm 5 mps 737 mmHg 80%
    23:00 +3°C° 0.1 mm 4 mps 738 mmHg 82%
    Show more